Marysville, CA

11:57 PM PDT on June 20, 2018 (GMT -0700)
Yuba County

Weather History for KMYV - October, 2017

Change the Weather History Date:

Monday, October 9, 2017

  Actual Average Record
Temperature  
Mean Temperature 70 °F -  
Max Temperature 82 °F 82 °F 97 °F (1971)
Min Temperature 57 °F 53 °F 43 °F (1968)
Cooling Degree Days 4    
Growing Degree Days 20 (Base 50)    
Moisture  
Dew Point 29 °F    
Average Humidity 26    
Maximum Humidity 49    
Minimum Humidity 12    
Precipitation  
Precipitation 0.00 in - - ()
Sea Level Pressure  
Sea Level Pressure 29.92 in    
Wind  
Wind Speed 12 mph (NNW)    
Max Wind Speed 21 mph    
Max Gust Speed 30 mph    
Visibility 10 miles    
Events      
Averages and records for this station are not official NWS values.
T = Trace of Precipitation, MM = Missing Value Source: NWS Daily Summary

Daily Weather History Graph

Daily Weather History Graph

Search for Another Location

Airport or City:

Astronomy

Oct. 09, 2017 Rise Set
Actual Time 7:10 AM PDT 6:35 PM PDT
Civil Twilight 6:43 AM PDT 7:02 PM PDT
Nautical Twilight 6:12 AM PDT 7:33 PM PDT
Astronomical Twilight 5:41 AM PDT 8:04 PM PDT
Moon 9:52 PM PDT (10/9) 11:24 AM PDT (10/9)
Length of Visible Light 12h 19m
Length of Day
11h 25m
Waning Gibbous, 80% of the Moon is Illuminated
Oct 9
Waning Gibbous
Oct 12
Last Quarter
Oct 19
New
Oct 27
First Quarter
Nov 3
Full

Hourly Weather History & Observations

Time (PDT) Temp. Dew Point Humidity Pressure Visibility Wind Dir Wind Speed Gust Speed Precip Events Conditions
12:53 AM 64.0 °F 19.9 °F 18% 29.92 in 10.0 mi NNW 10.4 mph - N/A   Clear
1:53 AM 66.9 °F 18.0 °F 15% 29.91 in 8.0 mi NNW 12.7 mph - N/A   Clear
2:53 AM 61.0 °F 23.0 °F 23% 29.91 in 10.0 mi NNW 18.4 mph 25.3 mph N/A   Partly Cloudy
3:53 AM 59.0 °F 25.0 °F 27% 29.89 in 10.0 mi NNW 16.1 mph - N/A   Clear
4:53 AM 59.0 °F 25.0 °F 27% 29.88 in 10.0 mi NNW 20.7 mph 27.6 mph N/A   Mostly Cloudy
5:53 AM 60.1 °F 24.1 °F 25% 29.88 in 10.0 mi NNW 18.4 mph 29.9 mph N/A   Scattered Clouds
6:53 AM 59.0 °F 24.1 °F 26% 29.90 in 10.0 mi NNW 20.7 mph 29.9 mph N/A   Clear
7:53 AM 59.0 °F 24.1 °F 26% 29.91 in 10.0 mi NNW 17.3 mph 25.3 mph N/A   Clear
8:53 AM 62.1 °F 25.0 °F 24% 29.93 in 10.0 mi NNW 18.4 mph - N/A   Clear
9:53 AM 66.0 °F 27.0 °F 23% 29.94 in 10.0 mi NNW 13.8 mph 23.0 mph N/A   Clear
10:53 AM 72.0 °F 27.0 °F 19% 29.94 in 10.0 mi North 12.7 mph - N/A   Clear
11:53 AM 75.9 °F 26.1 °F 16% 29.95 in 10.0 mi NNW 10.4 mph - N/A   Clear
12:53 PM 79.0 °F 24.1 °F 13% 29.95 in 9.0 mi North 8.1 mph - N/A   Clear
1:53 PM 81.0 °F 23.0 °F 12% 29.93 in 10.0 mi WNW 8.1 mph - N/A   Clear
2:53 PM 82.0 °F 28.0 °F 14% 29.91 in 10.0 mi SW 3.5 mph - N/A   Clear
3:53 PM 82.0 °F 28.9 °F 14% 29.91 in 10.0 mi Variable 3.5 mph - N/A   Clear
4:53 PM 81.0 °F 32.0 °F 17% 29.91 in 10.0 mi SW 9.2 mph - N/A   Clear
5:53 PM 78.1 °F 36.0 °F 22% 29.91 in 10.0 mi SSW 6.9 mph - N/A   Clear
6:53 PM 71.1 °F 39.0 °F 31% 29.92 in 10.0 mi Calm Calm - N/A   Clear
7:53 PM 63.0 °F 37.0 °F 38% 29.93 in 9.0 mi Calm Calm - N/A   Clear
8:53 PM 64.0 °F 39.0 °F 40% 29.95 in 9.0 mi Calm Calm - N/A   Clear
9:53 PM 59.0 °F 39.9 °F 49% 29.96 in 10.0 mi East 4.6 mph - N/A   Clear
10:53 PM 57.9 °F 37.9 °F 47% 29.96 in 10.0 mi East 3.5 mph - N/A   Clear
11:53 PM 57.0 °F 37.0 °F 47% 29.96 in 10.0 mi ENE 4.6 mph - N/A   Clear